Middletown, OH

7:38 PM EDT on August 21, 2017 (GMT -0400)
Hook Field Municipal

Weather History for KMWO - January, 2013

Change the Weather History Date:

Wednesday, January 23, 2013

  Actual Average (KFFO) Record (KFFO)
Temperature  
Mean Temperature 16 °F -  
Max Temperature 21 °F 33 °F 62 °F (1999)
Min Temperature 12 °F 16 °F -2 °F (2005)
Degree Days  
Heating Degree Days 48    
Moisture  
Dew Point 8 °F    
Average Humidity 66    
Maximum Humidity 86    
Minimum Humidity 51    
Precipitation  
Precipitation 0.00 in - - ()
Sea Level Pressure  
Sea Level Pressure 30.26 in    
Wind  
Wind Speed 6 mph (WSW)    
Max Wind Speed 15 mph    
Max Gust Speed 18 mph    
Visibility 10 miles    
Events Snow    
Averages and records for this station are not official NWS values.
T = Trace of Precipitation, MM = Missing Value Source: NWS Daily Summary

Daily Weather History Graph

Daily Weather History Graph

Search for Another Location

Airport or City:

Trip Planner

Search our weather history database for the weather conditions in past years. The results will help you decide how hot, cold, wet, or windy it might be!

Date:

Astronomy

Jan. 23, 2013 Rise Set
Actual Time 7:52 AM EST 5:47 PM EST
Civil Twilight 7:23 AM EST 6:16 PM EST
Nautical Twilight 6:50 AM EST 6:49 PM EST
Astronomical Twilight 6:18 AM EST 7:21 PM EST
Moon 2:57 PM EST (1/23) 5:02 AM EST (1/23)
Length of Visible Light 10h 53m
Length of Day
9h 55m
Waxing Gibbous, 89% of the Moon is Illuminated
Jan 23
Waxing Gibbous
Jan 26
Full
Feb 3
Last Quarter
Feb 10
New
Feb 17
First Quarter

Hourly Weather History & Observations

Time (EST) Temp. Windchill Dew Point Humidity Pressure Visibility Wind Dir Wind Speed Gust Speed Precip Events Conditions
12:15 AM 15.3 °F 3.5 °F 2.3 °F 57% 30.35 in 10.0 mi West 9.2 mph - N/A   Overcast
12:35 AM 15.3 °F 6.6 °F 2.7 °F 58% 30.35 in 10.0 mi West 5.8 mph - N/A   Overcast
12:55 AM 15.6 °F 5.9 °F 2.5 °F 56% 30.35 in 10.0 mi West 6.9 mph - N/A   Overcast
1:15 AM 15.8 °F 7.2 °F 2.1 °F 55% 30.35 in 10.0 mi West 5.8 mph - N/A   Overcast
1:35 AM 15.8 °F 6.1 °F 2.7 °F 56% 30.35 in 10.0 mi West 6.9 mph - N/A   Overcast
1:55 AM 15.4 °F 3.8 °F 1.9 °F 55% 30.35 in 10.0 mi West 9.2 mph - N/A   Overcast
2:15 AM 15.3 °F 2.8 °F 2.7 °F 58% 30.35 in 10.0 mi West 10.4 mph - N/A   Overcast
2:35 AM 15.3 °F 4.4 °F 2.3 °F 57% 30.36 in 10.0 mi West 8.1 mph - N/A   Overcast
2:55 AM 15.3 °F 6.6 °F 2.8 °F 58% 30.36 in 10.0 mi West 5.8 mph - N/A   Overcast
3:15 AM 15.3 °F 6.6 °F 3.6 °F 60% 30.36 in 10.0 mi West 5.8 mph - N/A   Overcast
3:35 AM 15.3 °F 6.6 °F 3.4 °F 59% 30.35 in 10.0 mi West 5.8 mph - N/A   Overcast
3:55 AM 15.3 °F 6.6 °F 3.7 °F 60% 30.35 in 10.0 mi West 5.8 mph - N/A   Scattered Clouds
4:15 AM 13.3 °F 7.3 °F 4.3 °F 67% 30.35 in 10.0 mi NNW 3.5 mph - N/A   Clear
4:35 AM 12.7 °F - 4.1 °F 68% 30.34 in 10.0 mi Calm Calm - N/A   Clear
4:55 AM 12.7 °F - 5.9 °F 74% 30.35 in 10.0 mi Calm Calm - N/A   Clear
5:15 AM 12.7 °F - 7.5 °F 80% 30.35 in 10.0 mi Calm Calm - N/A   Scattered Clouds
5:35 AM 12.7 °F - 8.6 °F 84% 30.35 in 10.0 mi Calm Calm - N/A   Overcast
5:55 AM 12.7 °F - 8.2 °F 82% 30.35 in 10.0 mi Calm Calm - N/A   Overcast
6:15 AM 12.7 °F - 9.1 °F 86% 30.35 in 10.0 mi Calm Calm - N/A   Overcast
6:35 AM 12.7 °F - 7.3 °F 79% 30.34 in 10.0 mi Calm Calm - N/A   Overcast
6:55 AM 13.8 °F - 7.2 °F 75% 30.35 in 10.0 mi Calm Calm - N/A   Overcast
7:15 AM 14.0 °F - 6.8 °F 73% 30.35 in 10.0 mi Calm Calm - N/A   Overcast
7:35 AM 15.1 °F - 7.7 °F 73% 30.35 in 10.0 mi Calm Calm - N/A   Overcast
7:55 AM 15.3 °F 6.6 °F 6.8 °F 69% 30.35 in 10.0 mi SW 5.8 mph - N/A   Overcast
8:15 AM 15.3 °F 7.9 °F 6.6 °F 69% 30.35 in 10.0 mi WSW 4.6 mph - N/A   Overcast
8:35 AM 15.3 °F 5.4 °F 6.1 °F 67% 30.35 in 10.0 mi WSW 6.9 mph - N/A   Overcast
8:55 AM 15.3 °F 4.4 °F 5.4 °F 65% 30.35 in 10.0 mi SW 8.1 mph - N/A   Overcast
9:15 AM 15.4 °F 4.6 °F 4.3 °F 61% 30.35 in 10.0 mi WSW 8.1 mph - N/A   Overcast
9:35 AM 16.0 °F 7.4 °F 4.6 °F 61% 30.35 in 10.0 mi WSW 5.8 mph - N/A   Overcast
9:55 AM 16.7 °F 6.2 °F 5.2 °F 61% 30.35 in 10.0 mi SW 8.1 mph - N/A   Overcast
10:15 AM 17.6 °F 7.3 °F 5.0 °F 58% 30.34 in 10.0 mi WSW 8.1 mph - N/A   Overcast
10:35 AM 17.6 °F 7.3 °F 3.9 °F 55% 30.34 in 10.0 mi SW 8.1 mph - N/A   Overcast
10:55 AM 17.6 °F 8.2 °F 3.4 °F 54% 30.34 in 10.0 mi WSW 6.9 mph - N/A   Overcast
11:15 AM 18.0 °F 7.7 °F 3.2 °F 53% 30.33 in 10.0 mi WSW 8.1 mph - N/A   Overcast
11:35 AM 19.0 °F 6.8 °F 3.4 °F 51% 30.32 in 10.0 mi WSW 11.5 mph - N/A   Overcast
11:55 AM 19.0 °F 6.8 °F 4.3 °F 53% 30.31 in 10.0 mi SW 11.5 mph - N/A   Overcast
12:15 PM 19.0 °F 6.1 °F 4.3 °F 53% 30.30 in 10.0 mi SW 12.7 mph 16.1 mph N/A   Overcast
12:35 PM 19.4 °F 7.9 °F 4.3 °F 52% 30.29 in 10.0 mi SW 10.4 mph 16.1 mph N/A   Overcast
12:55 PM 20.3 °F 8.3 °F 5.9 °F 54% 30.27 in 10.0 mi SW 11.5 mph - N/A Snow Light Snow
1:15 PM 20.3 °F 7.7 °F 7.2 °F 57% 30.25 in 10.0 mi SW 12.7 mph 18.4 mph N/A   Overcast
1:35 PM 19.4 °F 7.9 °F 7.9 °F 61% 30.25 in 10.0 mi WSW 10.4 mph - N/A   Overcast
1:55 PM 20.3 °F 7.2 °F 7.9 °F 59% 30.24 in 10.0 mi WSW 13.8 mph - N/A   Overcast
2:15 PM 20.3 °F 9.8 °F 7.9 °F 59% 30.23 in 10.0 mi WSW 9.2 mph - N/A   Overcast
2:35 PM 20.3 °F 6.6 °F 8.2 °F 60% 30.22 in 10.0 mi WSW 15.0 mph - N/A   Overcast
2:55 PM 20.3 °F 9.0 °F 7.9 °F 59% 30.21 in 10.0 mi WSW 10.4 mph 16.1 mph N/A Snow Light Snow
3:15 PM 20.3 °F 9.8 °F 8.1 °F 59% 30.20 in 10.0 mi SW 9.2 mph - N/A   Overcast
3:35 PM 20.3 °F 9.8 °F 8.4 °F 60% 30.20 in 5.0 mi SW 9.2 mph - N/A Snow Light Snow
3:55 PM 20.3 °F 10.6 °F 11.3 °F 68% 30.19 in 4.0 mi SW 8.1 mph - N/A Snow Light Snow
4:15 PM 20.3 °F 13.8 °F 12.4 °F 71% 30.19 in 5.0 mi SW 4.6 mph - N/A Snow Light Snow
4:35 PM 20.3 °F 12.5 °F 12.2 °F 71% 30.19 in 10.0 mi SW 5.8 mph - N/A   Overcast
4:55 PM 20.3 °F 15.4 °F 11.1 °F 68% 30.18 in 10.0 mi WSW 3.5 mph - N/A   Overcast
5:15 PM 20.3 °F - 9.5 °F 63% 30.17 in 10.0 mi Calm Calm - N/A   Overcast
5:35 PM 21.0 °F - 9.0 °F 60% 30.16 in 10.0 mi Calm Calm - N/A   Overcast
5:55 PM 21.0 °F - 9.7 °F 62% 30.16 in 10.0 mi Calm Calm - N/A   Overcast
6:15 PM 21.0 °F - 9.1 °F 60% 30.15 in 10.0 mi Calm Calm - N/A   Overcast
6:35 PM 21.0 °F - 9.0 °F 60% 30.15 in 10.0 mi Calm Calm - N/A   Overcast
6:55 PM 21.0 °F - 8.6 °F 59% 30.15 in 10.0 mi Calm Calm - N/A   Overcast
7:15 PM 20.8 °F 16.0 °F 11.8 °F 68% 30.15 in 10.0 mi NNE 3.5 mph - N/A   Overcast
7:35 PM 20.5 °F 15.6 °F 12.4 °F 71% 30.15 in 10.0 mi NE 3.5 mph - N/A   Overcast
7:55 PM 20.3 °F - 12.6 °F 72% 30.14 in 10.0 mi Calm Calm - N/A   Overcast
8:15 PM 20.3 °F 15.4 °F 13.1 °F 74% 30.14 in 10.0 mi ENE 3.5 mph - N/A   Overcast
8:35 PM 20.3 °F 15.4 °F 14.0 °F 77% 30.14 in 10.0 mi NE 3.5 mph - N/A   Overcast
8:55 PM 20.3 °F - 14.0 °F 77% 30.14 in 10.0 mi Calm Calm - N/A   Overcast
9:15 PM 20.3 °F - 14.0 °F 77% 30.13 in 10.0 mi Calm Calm - N/A   Overcast
9:35 PM 20.3 °F - 14.7 °F 79% 30.12 in 10.0 mi Calm Calm - N/A   Overcast
9:55 PM 20.3 °F - 14.9 °F 80% 30.12 in 10.0 mi Calm Calm - N/A   Overcast
10:15 PM 20.3 °F - 14.9 °F 80% 30.12 in 10.0 mi Calm Calm - N/A   Overcast
10:35 PM 20.3 °F - 15.3 °F 81% 30.12 in 10.0 mi Calm Calm - N/A   Overcast
10:55 PM 20.3 °F - 16.0 °F 83% 30.11 in 10.0 mi Calm Calm - N/A   Overcast
11:15 PM 20.3 °F - 15.6 °F 82% 30.11 in 10.0 mi Calm Calm - N/A   Overcast
11:35 PM 20.5 °F - 15.8 °F 82% 30.11 in 10.0 mi Calm Calm - N/A   Overcast
11:55 PM 21.0 °F - 15.4 °F 79% 30.12 in 10.0 mi Calm Calm - N/A   Overcast